Location: Unspecified
(43.4354°N, 0.0000°E)
Time: 18:41:18
(UTC+00:00)

Tiros 1 despin weight - Pass Details

Date: 04 July 2019
Orbit: 594 x 642 km, 48.2° (Epoch: 16 July)

Event Time Altitude Azimuth Distance (km) Brightness Sun altitude
Rises 22:14:52 0° 290° (WNW) 2,875 ? -19.1°
Reaches altitude 10° 22:17:14 10° 295° (WNW) 1,961 ? -19.3°
Maximum altitude 22:21:40 56° 14° (NNE) 722 ? -19.6°
Enters shadow 22:24:40 19° 87° (E) 1,431 ? -19.9°
